sat.trackr.live / text

‹ back to catalog

STARLINK-34400

NORAD 64463 · 2025-130AB

PAYLOAD ACTIVE UNKNOWN

§ Identity

Operator
Country
US
Launch date
2025-06-18
Launch site
AFETR
Launch vehicle
Mass (kg)
RCS (m²)

Purposes: comms

External: N2YO · Heavens-Above · Gunter

§ Orbital elements

Epoch: 2026-05-25T03:36:16.989696Z

Period
94.10 min
Inclination
53.1578°
Eccentricity
0.0001347
Mean motion
15.30248750 rev/d
Perigee alt
474.1 km
Apogee alt
476.0 km
Semi-major
6,853.2 km
B*
1.7068e-3
RAAN
95.9252°
Arg perigee
85.6190°
Mean anomaly
274.4965°
Rev number
5,237

§ Raw data

STARLINK-344001 64463U 25130AB  26145.15019664  .00050612  00000+0  17068-2 0  99912 64463  53.1578  95.9252 0001347  85.6190 274.4965 15.30248750 52379

JSON: /api/v1/satellites/64463 · /tle

For live sub-satellite position, see the globe view (requires WebGL).

§ Visibility from observer

Set your observer location to see the next 7 days of passes ≥ 10°. The values pass through the URL so the page stays shareable.

No JS? Fill the form by hand. The geolocation button needs JavaScript.